Location: Follega
(52.8850°N, 5.7362°E)
Time: 08:06:12
(UTC+00:00)

ERS-1 Rocket - Pass Details

Date: 08 October 2020
Orbit: 753 x 757 km, 98.5° (Epoch: 30 October)

Event Time Altitude Azimuth Distance (km) Brightness Sun altitude
Exits shadow 19:18:14 16° 41° (NE) 1,899 4.8 -21.9°
Drops below altitude 10° 19:20:35 10° 13° (NNE) 2,301 5.5 -22.2°
Sets 19:23:39 0° 354° (N) 3,231 6.6 -22.7°
